TimeCST,TemperatureF,Dew PointF,Humidity,Sea Level PressureIn,VisibilityMPH,Wind Direction,Wind SpeedMPH,Gust SpeedMPH,PrecipitationIn,Events,Conditions,WindDirDegrees,DateUTC
12:09 AM,48.2,46.4,93,29.44,5.0,South,5.8,-,N/A,,Overcast,180,2012-11-11 06:09:00
12:53 AM,50.0,46.9,89,29.48,6.0,SW,11.5,-,N/A,,Overcast,220,2012-11-11 06:53:00
1:53 AM,46.9,44.1,90,29.51,6.0,WSW,19.6,25.3,N/A,,Overcast,250,2012-11-11 07:53:00
2:39 AM,42.8,37.4,81,29.52,10.0,WSW,15.0,20.7,N/A,,Overcast,250,2012-11-11 08:39:00
2:53 AM,39.9,35.1,83,29.57,10.0,West,17.3,-,N/A,,Overcast,260,2012-11-11 08:53:00
3:53 AM,36.0,32.0,86,29.60,10.0,WSW,15.0,-,N/A,,Overcast,250,2012-11-11 09:53:00
4:04 AM,35.6,30.2,81,29.57,10.0,West,16.1,23.0,N/A,,Overcast,260,2012-11-11 10:04:00
4:23 AM,35.6,30.2,81,29.58,10.0,WSW,9.2,-,N/A,,Overcast,250,2012-11-11 10:23:00
4:53 AM,35.1,30.0,82,29.63,10.0,West,15.0,-,N/A,,Overcast,260,2012-11-11 10:53:00
5:53 AM,33.1,28.9,85,29.67,10.0,West,13.8,-,N/A,,Overcast,270,2012-11-11 11:53:00
6:13 AM,33.8,28.4,81,29.65,10.0,WSW,10.4,-,N/A,,Overcast,250,2012-11-11 12:13:00
6:21 AM,33.8,28.4,81,29.65,10.0,West,9.2,-,N/A,,Overcast,270,2012-11-11 12:21:00
6:49 AM,32.0,28.4,87,29.65,10.0,West,10.4,-,N/A,,Overcast,260,2012-11-11 12:49:00
6:53 AM,32.0,27.0,82,29.69,10.0,West,15.0,19.6,N/A,,Overcast,260,2012-11-11 12:53:00
7:13 AM,30.2,26.6,86,29.67,10.0,West,12.7,-,N/A,,Overcast,260,2012-11-11 13:13:00
7:53 AM,30.0,25.0,82,29.72,10.0,WSW,13.8,-,N/A,,Overcast,250,2012-11-11 13:53:00
8:53 AM,30.0,23.0,75,29.73,10.0,WNW,10.4,-,N/A,,Overcast,290,2012-11-11 14:53:00
10:53 AM,28.0,21.0,75,29.75,10.0,West,9.2,-,N/A,,Overcast,270,2012-11-11 16:53:00
11:51 AM,28.4,19.4,69,29.72,10.0,West,13.8,-,N/A,,Overcast,270,2012-11-11 17:51:00
12:53 PM,27.0,18.0,69,29.77,10.0,West,13.8,23.0,N/A,,Overcast,270,2012-11-11 18:53:00
1:53 PM,27.0,17.1,66,29.78,10.0,West,13.8,24.2,N/A,,Overcast,270,2012-11-11 19:53:00
2:53 PM,26.1,17.1,69,29.78,10.0,West,17.3,21.9,N/A,,Overcast,260,2012-11-11 20:53:00
3:53 PM,24.1,15.1,69,29.82,10.0,WSW,19.6,27.6,N/A,,Overcast,250,2012-11-11 21:53:00
4:53 PM,24.1,15.1,69,29.83,10.0,West,16.1,20.7,N/A,,Overcast,260,2012-11-11 22:53:00
5:53 PM,23.0,12.0,63,29.85,10.0,West,17.3,23.0,0.00,,Overcast,270,2012-11-11 23:53:00
6:53 PM,23.0,12.9,65,29.86,8.0,WSW,11.5,-,0.00,Snow,Light Snow,250,2012-11-12 00:53:00
7:53 PM,21.9,14.0,72,29.87,5.0,WSW,13.8,19.6,0.00,Snow,Light Snow,250,2012-11-12 01:53:00
8:53 PM,21.9,14.0,72,29.88,5.0,WSW,9.2,-,0.00,Snow,Light Snow,250,2012-11-12 02:53:00
9:53 PM,21.0,10.9,65,29.89,8.0,West,12.7,-,0.00,Snow,Light Snow,260,2012-11-12 03:53:00
10:10 PM,21.2,12.2,68,29.83,2.5,West,9.2,-,0.00,Snow,Light Snow,260,2012-11-12 04:10:00
10:17 PM,21.2,12.2,68,29.83,4.0,WSW,11.5,-,0.00,Snow,Light Snow,240,2012-11-12 04:17:00
10:29 PM,21.2,12.2,68,29.83,6.0,WSW,13.8,-,0.00,Snow,Light Snow,250,2012-11-12 04:29:00
10:53 PM,21.0,12.9,71,29.88,4.0,WSW,13.8,20.7,0.00,Snow,Light Snow,240,2012-11-12 04:53:00
11:08 PM,21.2,12.2,68,29.82,7.0,WSW,11.5,-,0.00,Snow,Light Snow,240,2012-11-12 05:08:00
11:15 PM,19.4,12.2,74,29.82,7.0,WSW,12.7,-,0.00,Snow,Light Snow,240,2012-11-12 05:15:00
11:53 PM,19.9,12.0,71,29.88,7.0,SW,13.8,-,0.00,Snow,Light Snow,230,2012-11-12 05:53:00